EW9688 Weather Reports


Display with metric or nautical units.
time (UTC)temp
F
wind
direction
speed
MPH
gust
MPH
rain 1hr
in
rain 24hr
in
rain mn
in
humidity
%
barometer
mb
20210415103719 29 145 3.0 3.0 0.00 0.00 0.00 84 1016.8
20210415101821 29 144 2.0 3.0 0.00 0.00 0.00 85 1016.9
20210415100726 29 151 3.0 3.0 0.00 0.00 0.00 84 1016.9
20210415095740 29 147 2.0 3.0 0.00 0.00 0.00 85 1017.1
20210415093724 29 152 2.0 3.0 0.00 0.00 0.00 85 1017.4
20210415093320 29 150 2.0 3.0 0.00 0.00 0.00 85 1017.5
20210415091736 29 146 3.0 3.0 0.00 0.00 0.00 85 1017.6
20210415090719 29 151 2.0 2.0 0.00 0.00 0.00 84 1017.7
20210415085156 29 143 2.0 3.0 0.00 0.00 0.00 84 1017.7
20210415083750 29 144 1.0 2.0 0.00 0.00 0.00 84 1018.2
20210415083152 29 134 2.0 2.0 0.00 0.00 0.00 83 1018.4
20210415081951 29 149 1.0 2.0 0.00 0.00 0.00 83 1018.6
20210415080721 29 138 0.0 1.0 0.00 0.00 0.00 84 1018.6
20210415074754 29 145 1.0 2.0 0.00 0.00 0.00 83 1019.1
20210415073720 29 143 1.0 1.0 0.00 0.00 0.00 84 1019.2
20210415072702 29 1 1.0 5.0 0.00 0.00 0.00 83 1019.4
20210415071027 29 126 1.0 3.0 0.00 0.00 0.00 84 1019.6
20210415070026 29 10 2.0 4.0 0.00 0.00 0.00 84 1019.7
20210415064725 29 350 1.0 3.0 0.00 0.00 0.00 85 1019.9
20210415063718 29 14 1.0 4.0 0.00 0.00 0.00 84 1019.9
20210415063049 29 40 1.0 3.0 0.00 0.00 0.00 83 1020.1
20210415061724 29 35 2.0 4.0 0.00 0.00 0.00 85 1020.1
20210415060720 29 154 1.0 2.0 0.00 0.00 0.00 84 1020.2
20210415055901 29 71 1.0 3.0 0.00 0.00 0.00 85 1020.1
20210415054731 29 344 1.0 3.0 0.00 0.00 0.00 86 1020.3
20210415053720 29 34 2.0 7.0 0.00 0.00 0.00 86 1020.3
20210415051839 29 8 1.0 3.0 0.00 0.00 0.00 87 1020.2
20210415050717 29 19 2.0 4.0 0.00 0.00 0.00 86 1020.2
20210415045912 30 322 1.0 3.0 0.00 0.00 0.00 87 1020.5
20210415044736 30 36 1.0 4.0 0.00 0.00 0.00 86 1020.7
20210415043719 31 31 3.0 5.0 0.00 0.00 0.00 86 1020.4
20210415041823 31 52 2.0 4.0 0.00 0.00 0.00 90 1020.5
20210415040718 32 1 3.0 5.0 0.00 0.00 0.00 91 1020.4
20210415035923 32 6 2.0 4.0 0.00 0.00 0.00 90 1020.6
20210415034730 34 12 3.0 6.0 0.00 0.00 0.00 89 1020.6
20210415033718 34 99 2.0 4.0 0.00 0.00 0.00 87 1020.4
20210415032825 35 340 2.0 7.0 0.00 0.00 0.00 84 1020.5
20210415031737 35 13 3.0 8.0 0.00 0.00 0.00 82 1020.4
20210415030719 35 22 2.0 5.0 0.00 0.00 0.00 79 1020.2
20210415024854 36 1 4.0 8.0 0.00 0.00 0.00 77 1019.9
20210415023719 37 18 4.0 9.0 0.00 0.00 0.00 74 1019.7
20210415022816 37 22 4.0 8.0 0.00 0.00 0.00 72 1019.4
20210415021746 37 199 3.0 7.0 0.00 0.00 0.00 69 1019.2
20210415020716 37 2 4.0 6.0 0.00 0.00 0.00 70 1018.8
20210415020252 37 358 4.0 9.0 0.00 0.00 0.00 71 1018.9
20210415014951 37 9 4.0 8.0 0.00 0.00 0.00 71 1018.8
20210415013730 36 160 3.0 5.0 0.00 0.00 0.00 71 1018.6
20210415012112 36 23 4.0 7.0 0.00 0.00 0.00 70 1018.2
20210415010825 36 13 3.0 5.0 0.00 0.00 0.00 72 1018.1
20210415004718 36 1 4.0 8.0 0.00 0.00 0.00 71 1018.1
20210415003722 36 10 4.0 7.0 0.00 0.00 0.00 70 1018.3
20210415002725 36 105 2.0 4.0 0.00 0.00 0.00 70 1017.9
20210415001053 36 10 3.0 6.0 0.00 0.00 0.00 69 1018.2
20210415000240 36 10 4.0 9.0 0.00 0.00 0.00 68 1017.9
20210414234726 0 2 4.0 7.0 0.00 0.00 0.00
20210414233740 36 2 6.0 10.0 0.00 0.00 0.00 67 1017.9
20210414232943 36 356 4.0 8.0 0.00 0.00 0.00 67 1017.9
20210414231726 37 16 3.0 9.0 0.00 0.00 0.00 67 1017.8
20210414230739 37 33 3.0 9.0 0.00 0.00 0.00 66 1017.9
20210414225938 0 240 2.0 6.0 0.00 0.00 0.00
20210414224758 0 215 2.0 4.0 0.00 0.00 0.00
20210414223717 0 118 2.0 5.0 0.00 0.00 0.00
20210414222906 36 22 4.0 7.0 0.00 0.00 0.00 67 1018.3
20210414221739 0 321 3.0 6.0 0.00 0.00 0.00
20210414220728 0 354 4.0 10.0 0.00 0.00 0.00
20210414215858 0 355 4.0 9.0 0.00 0.00 0.00
20210414214718 0 246 2.0 4.0 0.00 0.00 0.00
20210414213718 0 327 4.0 9.0 0.00 0.00 0.00
20210414213029 0 77 3.0 9.0 0.00 0.00 0.00
20210414211805 0 72 3.0 9.0 0.00 0.00 0.00
20210414210718 0 2 3.0 7.0 0.00 0.00 0.00
20210414205902 33 201 1.0 3.0 0.00 0.00 0.00 76 1019.4
20210414204742 0 358 2.0 5.0 0.00 0.00 0.00
20210414203730 0 37 2.0 5.0 0.00 0.00 0.00
20210414202957 0 255 2.0 3.0 0.00 0.00 0.00
20210414201749 31 8 2.0 4.0 0.00 0.00 0.00 78 1019.9
20210414200758 31 156 2.0 3.0 0.00 0.00 0.00 77 1020.0
20210414195906 0 138 2.0 4.0 0.00 0.00 0.00
20210414194739 0 139 2.0 3.0 0.00 0.00 0.00
20210414193720 30 86 2.0 4.0 0.00 0.00 0.00 81 1020.3
20210414192941 30 149 2.0 3.0 0.00 0.00 0.00 81 1020.3
20210414191719 30 140 1.0 2.0 0.00 0.00 0.00 78 1020.3
20210414190722 30 29 1.0 4.0 0.00 0.00 0.00 82 1020.4
20210414185958 29 156 1.0 2.0 0.00 0.00 0.00 83 1020.6
20210414184850 29 137 1.0 3.0 0.00 0.00 0.00 80 1020.6
20210414183729 29 353 1.0 3.0 0.00 0.00 0.00 81 1020.7
20210414183035 29 175 1.0 2.0 0.00 0.00 0.00 82 1020.8
20210414181723 29 144 2.0 3.0 0.00 0.00 0.00 84 1020.9
20210414180719 28 118 2.0 3.0 0.00 0.00 0.00 82 1021.1
20210414180043 28 343 1.0 3.0 0.00 0.00 0.00 83 1021.2
20210414174839 27 110 1.0 3.0 0.00 0.00 0.00 84 1021.4
20210414173719 27 14 0.0 2.0 0.00 0.00 0.00 84 1021.5
20210414172922 26 1 2.0 5.0 0.00 0.00 0.00 83 1021.6
20210414171831 26 77 1.0 2.0 0.00 0.00 0.00 84 1021.7
20210414170752 26 23 1.0 4.0 0.00 0.00 0.00 83 1021.8
20210414170122 26 9 1.0 3.0 0.00 0.00 0.00 84 1021.9
20210414164907 25 13 2.0 4.0 0.00 0.00 0.00 84 1021.9
20210414163719 25 142 1.0 3.0 0.00 0.00 0.00 84 1021.9
20210414163057 25 343 2.0 5.0 0.00 0.00 0.00 83 1022.0
20210414161726 25 334 1.0 3.0 0.00 0.00 0.00 85 1022.0
20210414160718 25 354 1.0 3.0 0.00 0.00 0.00 83 1022.0
20210414155944 25 344 2.0 3.0 0.00 0.00 0.00 84 1022.0
20210414154828 25 339 2.0 4.0 0.00 0.00 0.00 82 1022.0
20210414153727 25 360 2.0 5.0 0.00 0.00 0.00 85 1021.9
20210414153025 25 338 2.0 4.0 0.00 0.00 0.00 83 1021.9
20210414151719 25 340 1.0 4.0 0.00 0.00 0.00 86 1021.8
20210414150724 25 327 1.0 3.0 0.00 0.00 0.00 86 1021.9
20210414145951 24 9 1.0 3.0 0.00 0.00 0.00 84 1021.9
20210414144732 24 338 1.0 2.0 0.00 0.00 0.00 87 1021.9
20210414143723 24 78 1.0 4.0 0.00 0.00 0.00 90 1022.0
20210414142915 24 103 1.0 2.0 0.00 0.00 0.00 91 1022.0
20210414141741 25 355 2.0 3.0 0.00 0.00 0.00 91 1022.0
20210414140725 25 338 1.0 3.0 0.00 0.00 0.00 91 1022.0
20210414140034 25 342 1.0 3.0 0.00 0.00 0.00 92 1022.0
20210414134759 25 9 1.0 3.0 0.00 0.00 0.00 91 1022.0
20210414133725 25 353 2.0 3.0 0.00 0.00 0.00 88 1022.0
20210414133038 25 353 2.0 5.0 0.00 0.00 0.00 89 1022.0
20210414131747 25 3 1.0 3.0 0.00 0.00 0.00 87 1022.0
20210414131033 25 341 2.0 4.0 0.00 0.00 0.00 87 1022.0
20210414130258 26 332 1.0 3.0 0.00 0.00 0.00 85 1021.9
20210414124734 26 138 1.0 3.0 0.00 0.00 0.00 84 1021.9
20210414123719 26 348 1.0 3.0 0.00 0.00 0.00 86 1021.9
20210414122934 26 326 1.0 3.0 0.00 0.00 0.00 86 1021.8
20210414121800 27 112 1.0 2.0 0.00 0.00 0.00 84 1021.6
20210414120727 27 347 1.0 3.0 0.00 0.00 0.00 83 1021.4
20210414115826 28 347 1.0 3.0 0.00 0.00 0.00 85 1021.3
20210414114721 29 28 2.0 4.0 0.00 0.00 0.00 87 1021.3
20210414113724 29 143 1.0 2.0 0.00 0.00 0.00 84 1021.1
20210414112937 29 146 1.0 1.0 0.00 0.00 0.00 82 1021.2
20210414111737 29 144 1.0 2.0 0.00 0.00 0.00 82 1021.3
20210414110723 29 147 1.0 2.0 0.00 0.00 0.00 82 1021.3
20210414110127 29 123 1.0 2.0 0.00 0.00 0.00 83 1021.4
20210414104737 29 166 0.0 1.0 0.00 0.00 0.00 83 1021.4